Imperial, NE

11:33 AM MDT on May 28, 2017 (GMT -0600)
Imperial Municipal

Weather History for KIML - October, 2012

Change the Weather History Date:

Thursday, October 4, 2012

  Actual Average Record
Temperature  
Mean Temperature 46 °F 56 °F  
Max Temperature 55 °F 71 °F 91 °F (1938)
Min Temperature 36 °F 41 °F 27 °F (1953)
Degree Days  
Heating Degree Days 19 9  
Month to date heating degree days 35 35  
Cooling Degree Days 0 0  
Month to date cooling degree days 4 3  
Year to date cooling degree days 1382 960  
Moisture  
Dew Point 26 °F    
Average Humidity 51    
Maximum Humidity 75    
Minimum Humidity 26    
Precipitation  
Precipitation 0.00 in 0.05 in 1.50 in (1930)
Sea Level Pressure  
Sea Level Pressure 30.33 in    
Wind  
Wind Speed 11 mph (North)    
Max Wind Speed 31 mph    
Max Gust Speed 38 mph    
Visibility 10 miles    
Events      
T = Trace of Precipitation, MM = Missing Value Source: NWS Daily Summary

Daily Weather History Graph

Daily Weather History Graph

Search for Another Location

Airport or City:

Trip Planner

Search our weather history database for the weather conditions in past years. The results will help you decide how hot, cold, wet, or windy it might be!

Date:

Astronomy

Oct. 04, 2012 Rise Set
Actual Time 6:46 AM MDT 6:22 PM MDT
Civil Twilight 6:19 AM MDT 6:50 PM MDT
Nautical Twilight 5:47 AM MDT 7:21 PM MDT
Astronomical Twilight 5:15 AM MDT 7:53 PM MDT
Moon 8:59 PM MDT (10/4) 11:06 AM MDT (10/4)
Length of Visible Light 12h 30m
Length of Day
11h 36m
Waning Gibbous, 81% of the Moon is Illuminated
Oct 4
Waning Gibbous
Oct 8
Last Quarter
Oct 15
New
Oct 21
First Quarter
Oct 29
Full

Hourly Weather History & Observations

Time (MDT) Temp. Windchill Dew Point Humidity Pressure Visibility Wind Dir Wind Speed Gust Speed Precip Events Conditions
12:53 AM 44.1 °F 34.8 °F 28.0 °F 53% 30.20 in 10.0 mi NNW 25.3 mph 34.5 mph N/A   Clear
1:53 AM 43.0 °F 34.2 °F 28.0 °F 56% 30.22 in 10.0 mi North 20.7 mph 31.1 mph N/A   Partly Cloudy
2:53 AM 41.0 °F 32.8 °F 28.9 °F 62% 30.24 in 10.0 mi NNW 16.1 mph 23.0 mph N/A   Clear
3:53 AM 37.9 °F 30.0 °F 28.9 °F 70% 30.26 in 10.0 mi NNW 12.7 mph - N/A   Clear
4:53 AM 37.0 °F 29.8 °F 28.9 °F 73% 30.30 in 10.0 mi NW 10.4 mph - N/A   Clear
5:53 AM 37.0 °F 29.3 °F 28.9 °F 73% 30.32 in 10.0 mi NW 11.5 mph - N/A   Clear
6:53 AM 36.0 °F 29.0 °F 28.0 °F 73% 30.35 in 10.0 mi NW 9.2 mph - N/A   Clear
7:53 AM 39.0 °F 31.0 °F 28.9 °F 67% 30.37 in 10.0 mi NNW 13.8 mph - N/A   Clear
8:53 AM 43.0 °F 35.1 °F 28.9 °F 58% 30.39 in 10.0 mi North 17.3 mph 23.0 mph N/A   Partly Cloudy
9:53 AM 46.0 °F 39.0 °F 28.0 °F 50% 30.40 in 10.0 mi NNW 17.3 mph 21.9 mph N/A   Scattered Clouds
10:53 AM 48.9 °F - 28.0 °F 44% 30.39 in 10.0 mi North 16.1 mph 21.9 mph N/A   Clear
11:53 AM 50.0 °F - 27.0 °F 41% 30.38 in 10.0 mi North 11.5 mph 20.7 mph N/A   Clear
12:53 PM 53.1 °F - 25.0 °F 34% 30.35 in 10.0 mi North 12.7 mph 23.0 mph N/A   Clear
1:53 PM 53.1 °F - 23.0 °F 31% 30.32 in 10.0 mi North 10.4 mph 18.4 mph N/A   Clear
2:53 PM 55.0 °F - 21.9 °F 28% 30.30 in 10.0 mi North 11.5 mph 20.7 mph N/A   Clear
3:53 PM 55.0 °F - 21.0 °F 27% 30.29 in 10.0 mi NNE 9.2 mph - N/A   Clear
4:53 PM 54.0 °F - 21.9 °F 29% 30.29 in 10.0 mi NE 8.1 mph - N/A   Clear
5:53 PM 51.1 °F - 21.9 °F 32% 30.31 in 10.0 mi NE 5.8 mph - N/A   Clear
6:53 PM 46.0 °F 42.5 °F 21.9 °F 39% 30.34 in 10.0 mi NE 6.9 mph - N/A   Clear
7:53 PM 41.0 °F 36.4 °F 21.9 °F 47% 30.36 in 9.0 mi NE 6.9 mph - N/A   Clear
8:53 PM 37.9 °F 31.5 °F 21.9 °F 53% 30.37 in 10.0 mi NE 9.2 mph - N/A   Clear
9:53 PM 39.0 °F 31.4 °F 23.0 °F 53% 30.35 in 10.0 mi NE 12.7 mph - N/A   Clear
10:53 PM 39.0 °F 31.8 °F 24.1 °F 55% 30.35 in 10.0 mi ENE 11.5 mph - N/A   Clear
11:53 PM 37.9 °F 32.1 °F 25.0 °F 60% 30.35 in 10.0 mi ENE 8.1 mph - N/A   Clear